User: anonymous   Login
Location: Berlin
(38.3226°N, 75.2177°W)
Time: 05:21:08
(UTC+00:00)
Language:

Abrixas rocket - Orbit

View from above orbital plane
View from above orbital plane
View from above satellite
View from above satellite

Ground track
Ground track

The orbit data is extracted from the following two-line orbital elements,

1 25723U 99022C   21015.40795552  .00051083  00000-0  17913-3 0  9998
2 25723  48.4075 271.0128 0002884 230.6601 129.4102 15.88596889211167
Epoch (UTC): 15 January 2021 09:47:27
Eccentricity: 0.0002884
inclination: 48.4075°
perigee height: 304 km
apogee height: 308 km
right ascension of ascending node: 271.0128°
argument of perigee: 230.6601°
revolutions per day: 15.88596889
mean anomaly at epoch: 129.4102°
orbit number at epoch: 21116

The dashed part of the orbit path shows where the satellite is in the earth's shadow,  

DLR